Hourly Data Report for October 20, 2015

All times are specified in Local Standard Time (LST). Add 1 hour to adjust for Daylight Saving Time where and when it is observed.

OTTAWA INTL A
ONTARIO

45°19'00.000" N
75°40'00.000" W
114.90 m
6106001
71628
YOW

Download Data

Hourly Data (October 2015)
Hourly Data Report for October 20, 2015
Temp Definition
°C
Dew Point Temp Definition
°C
Rel Hum Definition
%
Wind Dir Definition
10's deg

Wind Spd Definition
km/h
Visibility Definition
km
Stn Press Definition
kPa
Hmdx Definition


Wind Chill Definition


Weather Definition


TIME
00:00 Legend Double Dagger 9.7 5.3 74 21 19 24.1 99.90     LegendNANA
01:00 Legend Double Dagger 9.8 5.6 75 22 19 24.1 99.90     Mainly Clear
02:00 Legend Double Dagger 11.3 6.1 70 21 25 24.1 99.87     LegendNANA
03:00 Legend Double Dagger 10.9 6.7 75 22 24 24.1 99.86     LegendNANA
04:00 Legend Double Dagger 10.9 7.1 77 22 19 24.1 99.89     Mostly Cloudy
05:00 Legend Double Dagger 10.6 6.8 77 22 23 24.1 99.92     LegendNANA
06:00 Legend Double Dagger 10.1 6.5 78 22 17 24.1 99.98     LegendNANA
07:00 Legend Double Dagger 10.3 6.3 76 23 18 24.1 100.03     Clear
08:00 Legend Double Dagger 12.1 6.8 70 24 22 24.1 100.12     LegendNANA
09:00 Legend Double Dagger 13.8 6.9 63 25 26 24.1 100.17     LegendNANA
10:00 Legend Double Dagger 15.3 7.4 59 28 22 24.1 100.18     Mostly Cloudy
11:00 Legend Double Dagger 16.1 7.4 56 29 23 24.1 100.21     LegendNANA
12:00 Legend Double Dagger 16.7 8.2 57 29 21 24.1 100.22     LegendNANA
13:00 Legend Double Dagger 16.0 7.8 58 30 20 24.1 100.26     Mostly Cloudy
14:00 Legend Double Dagger 16.5 7.8 56 32 23 24.1 100.29     LegendNANA
15:00 Legend Double Dagger 16.0 7.1 55 30 20 24.1 100.30     LegendNANA
16:00
17:00 Legend Double Dagger 13.9 5.8 58 34 18 24.1 100.46     LegendNANA
18:00 Legend Double Dagger 12.4 5.4 62 33 19 24.1 100.57     LegendNANA
19:00 Legend Double Dagger 11.5 4.5 62 34 17 24.1 100.69     Cloudy
20:00 Legend Double Dagger 11.1 1.9 53 35 17 24.1 100.77     LegendNANA
21:00 Legend Double Dagger 9.3 -3.3 41 2 19 24.1 100.87     LegendNANA
22:00 Legend Double Dagger 8.5 -8.1 30 2 16 24.1 100.94     Cloudy
23:00 Legend Double Dagger 7.9 -6.6 35 2 17 24.1 100.99     LegendNANA

Notes on Data Quality.

Legend

  • E = Estimated
  • M = Missing
  • NA = Not Available
  • ‡ = Partner data that is not subject to review by the National Climate Archives
Date modified: